Time,TemperatureF,DewpointF,PressureIn,WindDirection,WindDirectionDegrees,WindSpeedMPH,WindSpeedGustMPH,Humidity,HourlyPrecipIn,Conditions,Clouds,dailyrainin,SolarRadiationWatts/m^2,SoftwareType,DateUTC
2013-07-09 00:00:00,71.0,69.2,29.93,SSW,211,2.3,2.3,94,0.00,RA,,0.00,0.0,WeatherDisplay:10.37,2013-07-09 04:00:00,
2013-07-09 00:01:00,71.0,69.2,29.93,SSW,211,2.3,2.3,94,0.00,RA,,0.00,0.0,WeatherDisplay:10.37,2013-07-09 04:01:00,
2013-07-09 00:02:00,71.0,69.2,29.93,SSW,211,2.0,2.0,94,0.00,RA,,0.00,0.0,WeatherDisplay:10.37,2013-07-09 04:02:00,
2013-07-09 00:07:00,70.9,69.4,29.94,SSW,211,2.3,2.3,95,0.00,RA,,0.00,0.0,WeatherDisplay:10.37,2013-07-09 04:07:00,
2013-07-09 00:12:00,70.8,69.3,29.94,SSW,211,2.3,2.3,95,0.00,CLR,,0.00,0.0,WeatherDisplay:10.37,2013-07-09 04:12:00,
2013-07-09 00:17:00,70.7,69.2,29.93,SSW,211,2.3,2.3,95,0.01,RA,,0.01,0.0,WeatherDisplay:10.37,2013-07-09 04:17:00,
2013-07-09 00:22:00,70.6,69.1,29.93,SSW,211,2.3,2.3,95,0.01,RA,,0.01,0.0,WeatherDisplay:10.37,2013-07-09 04:22:00,
2013-07-09 00:27:00,70.5,69.0,29.93,SSW,211,1.0,0.0,95,0.01,CLR,,0.01,0.0,WeatherDisplay:10.37,2013-07-09 04:27:00,
2013-07-09 00:32:00,70.3,68.8,29.94,SSW,211,0.0,0.0,95,0.01,CLR,,0.01,0.0,WeatherDisplay:10.37,2013-07-09 04:32:00,
2013-07-09 00:37:00,70.2,68.7,29.94,SSW,211,0.0,0.0,95,0.01,CLR,,0.01,0.0,WeatherDisplay:10.37,2013-07-09 04:37:00,
2013-07-09 00:42:00,70.1,68.6,29.94,SSW,211,1.1,1.1,95,0.01,CLR,,0.01,0.0,WeatherDisplay:10.37,2013-07-09 04:42:00,
2013-07-09 00:47:00,70.1,68.6,29.94,SSW,211,2.3,2.3,95,0.01,CLR,,0.01,0.0,WeatherDisplay:10.37,2013-07-09 04:47:00,
2013-07-09 00:52:00,70.3,69.1,29.94,SSW,211,2.3,2.3,96,0.01,CLR,,0.01,0.0,WeatherDisplay:10.37,2013-07-09 04:52:00,
2013-07-09 00:57:00,70.3,69.1,29.94,SSW,211,1.1,1.1,96,0.01,CLR,,0.01,0.0,WeatherDisplay:10.37,2013-07-09 04:57:00,
2013-07-09 01:02:00,70.3,69.1,29.94,SSW,211,2.3,2.3,96,0.01,CLR,,0.01,0.0,WeatherDisplay:10.37,2013-07-09 05:02:00,
2013-07-09 01:07:00,70.3,69.1,29.93,SSW,211,3.5,3.5,96,0.01,CLR,,0.01,0.0,WeatherDisplay:10.37,2013-07-09 05:07:00,
2013-07-09 01:12:00,70.3,69.1,29.93,SSW,211,3.5,3.5,96,0.01,CLR,,0.01,0.0,WeatherDisplay:10.37,2013-07-09 05:12:00,
2013-07-09 01:17:00,70.3,69.1,29.93,SSW,211,3.5,3.5,96,0.00,CLR,,0.01,0.0,WeatherDisplay:10.37,2013-07-09 05:17:00,
2013-07-09 01:22:00,70.3,69.1,29.93,SSW,211,2.3,2.3,96,0.00,CLR,,0.01,0.0,WeatherDisplay:10.37,2013-07-09 05:22:00,
2013-07-09 01:27:00,70.2,69.0,29.93,SSW,211,3.5,3.5,96,0.00,CLR,,0.01,0.0,WeatherDisplay:10.37,2013-07-09 05:27:00,
2013-07-09 01:32:00,70.1,68.9,29.94,South,183,3.5,3.5,96,0.00,CLR,,0.01,0.0,WeatherDisplay:10.37,2013-07-09 05:32:00,
2013-07-09 01:37:00,70.1,68.9,29.93,South,183,0.0,0.0,96,0.00,CLR,,0.01,0.0,WeatherDisplay:10.37,2013-07-09 05:37:00,
2013-07-09 01:42:00,69.9,68.7,29.93,South,183,1.1,1.1,96,0.00,CLR,,0.01,0.0,WeatherDisplay:10.37,2013-07-09 05:42:00,
2013-07-09 01:47:00,69.8,68.6,29.93,South,183,1.1,0.0,96,0.00,CLR,,0.01,0.0,WeatherDisplay:10.37,2013-07-09 05:47:00,
2013-07-09 01:52:00,69.7,68.5,29.93,South,183,0.0,0.0,96,0.00,CLR,,0.01,0.0,WeatherDisplay:10.37,2013-07-09 05:52:00,
2013-07-09 01:57:00,69.5,68.3,29.93,South,183,0.0,0.0,96,0.00,CLR,,0.01,0.0,WeatherDisplay:10.37,2013-07-09 05:57:00,
2013-07-09 02:02:00,69.3,67.8,29.93,South,183,0.0,0.0,95,0.00,CLR,,0.01,0.0,WeatherDisplay:10.37,2013-07-09 06:02:00,
2013-07-09 02:07:00,69.2,67.7,29.93,South,183,0.0,0.0,95,0.00,CLR,,0.01,0.0,WeatherDisplay:10.37,2013-07-09 06:07:00,
2013-07-09 02:12:00,69.0,67.8,29.93,South,183,0.0,0.0,96,0.00,CLR,,0.01,0.0,WeatherDisplay:10.37,2013-07-09 06:12:00,
2013-07-09 02:17:00,68.8,67.6,29.93,South,183,0.0,0.0,96,0.00,CLR,,0.01,0.0,WeatherDisplay:10.37,2013-07-09 06:17:00,
2013-07-09 02:22:00,68.8,67.6,29.93,South,183,0.0,0.0,96,0.00,CLR,,0.01,0.0,WeatherDisplay:10.37,2013-07-09 06:22:00,
2013-07-09 02:27:00,68.7,67.5,29.93,South,183,0.0,0.0,96,0.00,CLR,,0.01,0.0,WeatherDisplay:10.37,2013-07-09 06:27:00,
2013-07-09 02:32:00,68.6,67.4,29.93,South,183,0.0,0.0,96,0.00,CLR,,0.01,0.0,WeatherDisplay:10.37,2013-07-09 06:32:00,
2013-07-09 02:37:00,68.4,67.2,29.93,South,183,0.0,0.0,96,0.00,CLR,,0.01,0.0,WeatherDisplay:10.37,2013-07-09 06:37:00,
2013-07-09 02:42:00,68.2,67.0,29.93,South,183,0.0,0.0,96,0.00,CLR,,0.01,0.0,WeatherDisplay:10.37,2013-07-09 06:42:00,
2013-07-09 02:47:00,68.1,66.9,29.93,South,183,0.0,0.0,96,0.00,CLR,,0.01,0.0,WeatherDisplay:10.37,2013-07-09 06:47:00,
2013-07-09 02:52:00,68.1,66.9,29.93,South,183,0.0,0.0,96,0.00,CLR,,0.01,0.0,WeatherDisplay:10.37,2013-07-09 06:52:00,
2013-07-09 02:57:00,68.1,66.9,29.93,South,183,0.0,0.0,96,0.00,CLR,,0.01,0.0,WeatherDisplay:10.37,2013-07-09 06:57:00,
2013-07-09 03:02:00,68.0,66.8,29.93,South,183,0.0,0.0,96,0.00,CLR,,0.01,0.0,WeatherDisplay:10.37,2013-07-09 07:02:00,
2013-07-09 03:07:00,68.1,66.9,29.93,South,183,0.0,0.0,96,0.00,CLR,,0.01,0.0,WeatherDisplay:10.37,2013-07-09 07:07:00,
2013-07-09 03:12:00,68.2,67.3,29.93,South,183,0.0,0.0,97,0.00,CLR,,0.01,0.0,WeatherDisplay:10.37,2013-07-09 07:12:00,
2013-07-09 03:17:00,68.3,67.4,29.93,South,183,0.0,0.0,97,0.00,CLR,,0.01,0.0,WeatherDisplay:10.37,2013-07-09 07:17:00,
2013-07-09 03:22:00,68.3,67.4,29.93,South,183,2.3,2.3,97,0.00,CLR,,0.01,0.0,WeatherDisplay:10.37,2013-07-09 07:22:00,
2013-07-09 03:27:00,68.5,67.6,29.93,South,183,2.3,2.3,97,0.00,CLR,,0.01,0.0,WeatherDisplay:10.37,2013-07-09 07:27:00,
2013-07-09 03:32:00,68.7,67.8,29.93,South,183,0.0,0.0,97,0.00,CLR,,0.01,0.0,WeatherDisplay:10.37,2013-07-09 07:32:00,
2013-07-09 03:37:00,68.8,67.9,29.93,South,183,2.3,2.3,97,0.00,CLR,,0.01,0.0,WeatherDisplay:10.37,2013-07-09 07:37:00,
2013-07-09 03:42:00,68.9,68.0,29.93,South,183,3.5,3.5,97,0.00,CLR,,0.01,0.0,WeatherDisplay:10.37,2013-07-09 07:42:00,
2013-07-09 03:47:00,69.0,68.1,29.93,South,183,2.3,2.3,97,0.00,CLR,,0.01,0.0,WeatherDisplay:10.37,2013-07-09 07:47:00,
2013-07-09 03:52:00,69.2,68.3,29.93,South,183,2.3,2.3,97,0.00,CLR,,0.01,0.0,WeatherDisplay:10.37,2013-07-09 07:52:00,
2013-07-09 03:57:00,69.2,68.3,29.93,South,183,1.0,1.0,97,0.00,CLR,,0.01,0.0,WeatherDisplay:10.37,2013-07-09 07:57:00,
2013-07-09 04:02:00,69.3,68.4,29.94,South,183,0.0,0.0,97,0.00,CLR,,0.01,0.0,WeatherDisplay:10.37,2013-07-09 08:02:00,
2013-07-09 04:08:00,69.4,68.5,29.94,South,183,0.0,0.0,97,0.00,CLR,,0.01,0.0,WeatherDisplay:10.37,2013-07-09 08:08:00,
2013-07-09 04:13:00,69.4,68.5,29.93,South,183,0.0,0.0,97,0.00,CLR,,0.01,0.0,WeatherDisplay:10.37,2013-07-09 08:13:00,
2013-07-09 04:18:00,69.3,68.4,29.93,South,183,0.0,0.0,97,0.00,CLR,,0.01,0.0,WeatherDisplay:10.37,2013-07-09 08:18:00,
2013-07-09 04:23:00,69.3,68.4,29.93,South,183,0.0,0.0,97,0.00,CLR,,0.01,0.0,WeatherDisplay:10.37,2013-07-09 08:23:00,
2013-07-09 04:28:00,69.3,68.4,29.94,South,183,1.1,1.1,97,0.00,CLR,,0.01,0.0,WeatherDisplay:10.37,2013-07-09 08:28:00,
2013-07-09 04:33:00,69.2,68.3,29.93,South,183,2.3,2.3,97,0.00,CLR,,0.01,0.0,WeatherDisplay:10.37,2013-07-09 08:33:00,
2013-07-09 04:38:00,69.3,68.4,29.93,South,183,1.1,1.1,97,0.00,CLR,,0.01,0.0,WeatherDisplay:10.37,2013-07-09 08:38:00,
2013-07-09 04:43:00,69.4,68.5,29.93,South,183,0.0,0.0,97,0.00,CLR,,0.01,0.0,WeatherDisplay:10.37,2013-07-09 08:43:00,
2013-07-09 04:48:00,69.3,68.4,29.93,South,183,0.0,0.0,97,0.00,CLR,,0.01,0.0,WeatherDisplay:10.37,2013-07-09 08:48:00,
2013-07-09 04:53:00,69.2,68.3,29.93,South,183,0.0,0.0,97,0.00,CLR,,0.01,0.0,WeatherDisplay:10.37,2013-07-09 08:53:00,
2013-07-09 04:58:00,69.2,68.3,29.93,South,183,0.0,0.0,97,0.00,CLR,,0.01,0.0,WeatherDisplay:10.37,2013-07-09 08:58:00,
2013-07-09 05:03:00,69.2,68.3,29.93,South,183,2.3,2.3,97,0.00,CLR,,0.01,0.0,WeatherDisplay:10.37,2013-07-09 09:03:00,
2013-07-09 05:08:00,69.4,68.5,29.93,South,183,1.1,1.1,97,0.00,CLR,,0.01,0.0,WeatherDisplay:10.37,2013-07-09 09:08:00,
2013-07-09 05:13:00,69.5,68.6,29.93,South,183,1.1,1.1,97,0.00,CLR,,0.01,0.0,WeatherDisplay:10.37,2013-07-09 09:13:00,
2013-07-09 05:18:00,69.5,68.6,29.93,South,183,1.1,1.1,97,0.00,CLR,,0.01,0.0,WeatherDisplay:10.37,2013-07-09 09:18:00,
2013-07-09 05:23:00,69.7,68.8,29.93,South,183,2.3,2.3,97,0.00,CLR,,0.01,0.0,WeatherDisplay:10.37,2013-07-09 09:23:00,
2013-07-09 05:28:00,69.7,68.8,29.92,South,183,1.1,1.1,97,0.00,CLR,,0.01,0.0,WeatherDisplay:10.37,2013-07-09 09:28:00,
2013-07-09 05:33:00,69.7,68.8,29.93,South,183,0.0,0.0,97,0.00,CLR,,0.01,0.0,WeatherDisplay:10.37,2013-07-09 09:33:00,
2013-07-09 05:38:00,69.7,68.8,29.93,South,183,0.0,0.0,97,0.00,CLR,,0.01,0.0,WeatherDisplay:10.37,2013-07-09 09:38:00,
2013-07-09 05:43:00,69.6,68.7,29.93,South,183,0.0,0.0,97,0.00,CLR,,0.01,0.0,WeatherDisplay:10.37,2013-07-09 09:43:00,
2013-07-09 05:48:00,69.5,68.6,29.93,South,183,1.1,1.1,97,0.00,CLR,,0.01,0.0,WeatherDisplay:10.37,2013-07-09 09:48:00,
2013-07-09 05:53:00,69.5,68.6,29.93,South,183,1.1,1.1,97,0.00,CLR,,0.01,0.0,WeatherDisplay:10.37,2013-07-09 09:53:00,
2013-07-09 05:58:00,69.6,68.7,29.93,South,183,0.0,0.0,97,0.00,CLR,,0.01,0.0,WeatherDisplay:10.37,2013-07-09 09:58:00,
2013-07-09 06:03:00,69.6,68.7,29.93,South,183,0.0,0.0,97,0.00,CLR,,0.01,0.0,WeatherDisplay:10.37,2013-07-09 10:03:00,
2013-07-09 06:08:00,69.7,68.8,29.93,South,183,0.0,0.0,97,0.00,CLR,,0.01,0.0,WeatherDisplay:10.37,2013-07-09 10:08:00,
2013-07-09 06:13:00,69.7,69.1,29.93,South,183,0.0,0.0,98,0.00,CLR,,0.01,0.0,WeatherDisplay:10.37,2013-07-09 10:13:00,
2013-07-09 06:18:00,69.8,69.2,29.93,South,183,0.0,0.0,98,0.00,CLR,,0.01,0.0,WeatherDisplay:10.37,2013-07-09 10:18:00,
2013-07-09 06:23:00,69.8,69.2,29.93,South,183,1.1,1.1,98,0.00,CLR,,0.01,5.0,WeatherDisplay:10.37,2013-07-09 10:23:00,
2013-07-09 06:28:00,69.8,69.2,29.93,South,183,1.1,1.1,98,0.00,CLR,,0.01,11.0,WeatherDisplay:10.37,2013-07-09 10:28:00,
2013-07-09 06:33:00,69.8,68.9,29.94,South,183,0.0,0.2,97,0.00,CLR,,0.01,16.0,WeatherDisplay:10.37,2013-07-09 10:33:00,
2013-07-09 06:38:00,69.8,68.9,29.94,South,183,0.0,0.0,97,0.00,CLR,,0.01,18.0,WeatherDisplay:10.37,2013-07-09 10:38:00,
2013-07-09 06:43:00,69.9,69.0,29.94,South,183,1.1,0.0,97,0.00,CLR,,0.01,18.0,WeatherDisplay:10.37,2013-07-09 10:43:00,
2013-07-09 06:48:00,69.9,69.0,29.94,South,183,0.0,0.0,97,0.00,CLR,,0.01,16.0,WeatherDisplay:10.37,2013-07-09 10:48:00,
2013-07-09 06:53:00,69.9,69.0,29.94,South,183,0.0,0.0,97,0.00,CLR,,0.01,16.0,WeatherDisplay:10.37,2013-07-09 10:53:00,
2013-07-09 06:58:00,69.9,69.0,29.94,South,183,0.0,0.0,97,0.00,CLR,,0.01,19.0,WeatherDisplay:10.37,2013-07-09 10:58:00,
2013-07-09 07:03:00,69.8,68.9,29.94,South,183,0.0,0.1,97,0.00,CLR,,0.01,25.0,WeatherDisplay:10.37,2013-07-09 11:03:00,
2013-07-09 07:08:00,69.8,68.9,29.94,South,183,1.1,0.0,97,0.00,CLR,,0.01,30.0,WeatherDisplay:10.37,2013-07-09 11:08:00,
2013-07-09 07:13:00,69.8,68.9,29.93,South,183,0.0,0.0,97,0.00,CLR,,0.01,35.0,WeatherDisplay:10.37,2013-07-09 11:13:00,
2013-07-09 07:18:00,69.8,68.9,29.93,South,183,0.0,0.0,97,0.00,CLR,,0.01,44.0,WeatherDisplay:10.37,2013-07-09 11:18:00,
2013-07-09 07:23:00,69.8,68.9,29.94,South,183,1.1,1.1,97,0.00,CLR,,0.01,54.0,WeatherDisplay:10.37,2013-07-09 11:23:00,
2013-07-09 07:28:00,69.9,69.0,29.94,South,183,0.0,0.0,97,0.00,CLR,,0.01,42.0,WeatherDisplay:10.37,2013-07-09 11:28:00,
2013-07-09 07:33:00,70.0,69.1,29.94,South,183,1.1,0.0,97,0.00,CLR,,0.01,40.0,WeatherDisplay:10.37,2013-07-09 11:33:00,
2013-07-09 07:38:00,70.1,69.2,29.93,South,183,0.0,0.0,97,0.00,CLR,,0.01,49.0,WeatherDisplay:10.37,2013-07-09 11:38:00,
2013-07-09 07:43:00,70.2,69.3,29.93,South,183,1.1,0.0,97,0.00,CLR,,0.01,54.0,WeatherDisplay:10.37,2013-07-09 11:43:00,
2013-07-09 07:48:00,70.3,69.4,29.93,South,183,1.1,1.1,97,0.00,CLR,,0.01,63.0,WeatherDisplay:10.37,2013-07-09 11:48:00,
2013-07-09 07:53:00,70.4,69.5,29.94,South,183,0.0,0.0,97,0.00,CLR,,0.01,72.0,WeatherDisplay:10.37,2013-07-09 11:53:00,
2013-07-09 07:58:00,70.6,69.7,29.94,South,183,2.3,2.3,97,0.00,CLR,,0.01,67.0,WeatherDisplay:10.37,2013-07-09 11:58:00,
2013-07-09 08:03:00,70.8,69.9,29.94,WSW,244,3.5,3.5,97,0.00,OVC,,0.01,83.0,WeatherDisplay:10.37,2013-07-09 12:03:00,
2013-07-09 08:08:00,70.9,70.0,29.94,West,265,2.3,2.3,97,0.00,OVC,,0.01,83.0,WeatherDisplay:10.37,2013-07-09 12:08:00,
2013-07-09 08:13:00,71.1,70.2,29.94,West,265,2.3,2.3,97,0.00,OVC,,0.01,93.0,WeatherDisplay:10.37,2013-07-09 12:13:00,
2013-07-09 08:18:00,71.3,70.4,29.94,West,265,1.1,1.1,97,0.00,OVC,,0.01,104.0,WeatherDisplay:10.37,2013-07-09 12:18:00,
2013-07-09 08:23:00,71.5,70.3,29.94,SSW,213,3.5,3.5,96,0.00,OVC,,0.01,179.0,WeatherDisplay:10.37,2013-07-09 12:23:00,
2013-07-09 08:28:00,71.8,70.6,29.94,WSW,246,3.5,3.5,96,0.00,OVC,,0.01,56.0,WeatherDisplay:10.37,2013-07-09 12:28:00,
2013-07-09 08:33:00,71.7,70.2,29.94,WSW,246,1.1,1.1,95,0.00,OVC,,0.01,72.0,WeatherDisplay:10.37,2013-07-09 12:33:00,
2013-07-09 08:38:00,71.9,70.4,29.94,WSW,246,2.3,2.3,95,0.00,OVC,,0.01,113.0,WeatherDisplay:10.37,2013-07-09 12:38:00,
2013-07-09 08:43:00,72.1,70.6,29.94,WSW,246,1.1,1.1,95,0.00,OVC,,0.01,130.0,WeatherDisplay:10.37,2013-07-09 12:43:00,
2013-07-09 08:48:00,72.2,70.7,29.94,WSW,246,3.5,3.5,95,0.00,OVC,,0.01,109.0,WeatherDisplay:10.37,2013-07-09 12:48:00,
2013-07-09 08:53:00,72.4,70.6,29.94,WSW,246,2.3,2.3,94,0.00,OVC,,0.01,130.0,WeatherDisplay:10.37,2013-07-09 12:53:00,
2013-07-09 08:58:00,72.6,70.8,29.94,WSW,246,1.1,1.1,94,0.00,OVC,,0.01,141.0,WeatherDisplay:10.37,2013-07-09 12:58:00,
2013-07-09 09:03:00,72.8,70.7,29.94,WSW,246,1.1,1.1,93,0.00,OVC,,0.01,146.0,WeatherDisplay:10.37,2013-07-09 13:03:00,
2013-07-09 09:08:00,73.0,71.2,29.94,WSW,246,1.0,0.0,94,0.00,OVC,,0.01,163.0,WeatherDisplay:10.37,2013-07-09 13:08:00,
2013-07-09 09:13:00,73.2,71.1,29.95,WSW,246,1.1,0.0,93,0.00,OVC,,0.01,158.0,WeatherDisplay:10.37,2013-07-09 13:13:00,
2013-07-09 09:18:00,73.3,71.2,29.94,WSW,246,1.1,0.0,93,0.00,OVC,,0.01,163.0,WeatherDisplay:10.37,2013-07-09 13:18:00,
2013-07-09 09:23:00,73.4,70.9,29.94,WSW,246,3.5,3.5,92,0.00,OVC,,0.01,167.0,WeatherDisplay:10.37,2013-07-09 13:23:00,
2013-07-09 09:28:00,73.7,71.2,29.95,WSW,246,2.3,2.3,92,0.00,OVC,,0.01,251.0,WeatherDisplay:10.37,2013-07-09 13:28:00,
2013-07-09 09:33:00,74.0,71.2,29.95,WSW,244,2.3,2.3,91,0.00,OVC,,0.01,141.0,WeatherDisplay:10.37,2013-07-09 13:33:00,
2013-07-09 09:38:00,74.2,71.4,29.95,WSW,237,2.3,2.3,91,0.00,OVC,,0.01,221.0,WeatherDisplay:10.37,2013-07-09 13:38:00,
2013-07-09 09:39:00,74.2,71.4,29.95,WSW,237,2.3,2.3,91,0.00,OVC,,0.01,269.0,WeatherDisplay:10.37,2013-07-09 13:39:00,
2013-07-09 09:44:00,74.5,71.4,29.94,NW,314,3.5,3.5,90,0.00,OVC,,0.01,341.0,WeatherDisplay:10.37,2013-07-09 13:44:00,
2013-07-09 09:49:00,74.9,72.1,29.95,West,262,3.5,3.5,91,0.00,OVC,,0.01,193.0,WeatherDisplay:10.37,2013-07-09 13:49:00,
2013-07-09 09:54:00,75.0,71.5,29.94,West,277,3.5,3.5,89,0.00,OVC,,0.01,151.0,WeatherDisplay:10.37,2013-07-09 13:54:00,
2013-07-09 09:59:00,75.1,71.3,29.94,West,269,0.0,0.3,88,0.00,OVC,,0.01,209.0,WeatherDisplay:10.37,2013-07-09 13:59:00,
2013-07-09 10:04:00,75.3,71.8,29.94,West,268,3.5,3.5,89,0.00,OVC,,0.01,689.0,WeatherDisplay:10.37,2013-07-09 14:04:00,
2013-07-09 10:09:00,75.6,71.8,29.94,WSW,256,4.0,4.0,88,0.00,OVC,,0.01,325.0,WeatherDisplay:10.37,2013-07-09 14:09:00,
2013-07-09 10:14:00,76.0,71.8,29.94,WNW,287,5.0,5.0,87,0.00,OVC,,0.01,686.0,WeatherDisplay:10.37,2013-07-09 14:14:00,
2013-07-09 10:19:00,76.0,71.5,29.94,SW,217,4.6,4.6,86,0.00,OVC,,0.01,376.0,WeatherDisplay:10.37,2013-07-09 14:19:00,
2013-07-09 10:24:00,76.2,71.7,29.94,WSW,242,3.5,3.5,86,0.00,OVC,,0.01,207.0,WeatherDisplay:10.37,2013-07-09 14:24:00,
2013-07-09 10:29:00,76.4,71.9,29.94,WSW,242,1.1,1.1,86,0.00,OVC,,0.01,802.0,WeatherDisplay:10.37,2013-07-09 14:29:00,
2013-07-09 10:34:00,77.0,71.8,29.94,West,270,5.0,5.0,84,0.00,OVC,,0.01,278.0,WeatherDisplay:10.37,2013-07-09 14:34:00,
2013-07-09 10:39:00,76.6,71.4,29.94,West,261,3.5,3.5,84,0.00,OVC,,0.01,149.0,WeatherDisplay:10.37,2013-07-09 14:39:00,
2013-07-09 10:44:00,76.2,71.0,29.94,SW,227,3.5,3.5,84,0.00,OVC,,0.01,156.0,WeatherDisplay:10.37,2013-07-09 14:44:00,
2013-07-09 10:49:00,76.0,71.2,29.94,WSW,249,3.5,3.5,85,0.00,OVC,,0.01,167.0,WeatherDisplay:10.37,2013-07-09 14:49:00,
2013-07-09 10:54:00,76.2,71.7,29.94,WNW,286,2.3,2.3,86,0.00,OVC,,0.01,784.0,WeatherDisplay:10.37,2013-07-09 14:54:00,
2013-07-09 10:59:00,77.1,71.5,29.94,SW,225,4.0,4.0,83,0.00,OVC,,0.01,805.0,WeatherDisplay:10.37,2013-07-09 14:59:00,
2013-07-09 11:04:00,78.0,71.7,29.94,SSW,212,6.0,6.0,81,0.00,OVC,,0.01,589.0,WeatherDisplay:10.37,2013-07-09 15:04:00,
2013-07-09 11:09:00,78.9,72.2,29.94,SW,229,5.8,5.8,80,0.00,CLR,,0.01,981.0,WeatherDisplay:10.37,2013-07-09 15:09:00,
2013-07-09 11:14:00,79.3,71.1,29.94,WNW,296,8.1,8.1,76,0.00,CLR,,0.01,360.0,WeatherDisplay:10.37,2013-07-09 15:14:00,
2013-07-09 11:19:00,79.0,71.2,29.94,WSW,248,6.9,6.9,77,0.00,CLR,,0.01,457.0,WeatherDisplay:10.37,2013-07-09 15:19:00,
2013-07-09 11:24:00,78.9,70.3,29.94,NW,306,5.0,5.0,75,0.00,CLR,,0.01,830.0,WeatherDisplay:10.37,2013-07-09 15:24:00,
2013-07-09 11:29:00,79.1,70.5,29.93,WNW,295,5.8,5.8,75,0.00,CLR,,0.01,830.0,WeatherDisplay:10.37,2013-07-09 15:29:00,
2013-07-09 11:34:00,79.1,70.9,29.93,WNW,300,5.8,5.8,76,0.00,CLR,,0.01,410.0,WeatherDisplay:10.37,2013-07-09 15:34:00,
2013-07-09 11:39:00,79.0,71.2,29.93,WNW,290,4.6,4.6,77,0.00,CLR,,0.01,330.0,WeatherDisplay:10.37,2013-07-09 15:39:00,
2013-07-09 11:44:00,79.2,71.0,29.93,West,261,3.5,3.5,76,0.00,CLR,,0.01,928.0,WeatherDisplay:10.37,2013-07-09 15:44:00,
2013-07-09 11:49:00,79.7,71.8,29.93,WNW,286,6.9,6.9,77,0.00,CLR,,0.01,886.0,WeatherDisplay:10.37,2013-07-09 15:49:00,
2013-07-09 11:54:00,79.6,71.4,29.93,WSW,244,5.8,5.8,76,0.00,CLR,,0.01,195.0,WeatherDisplay:10.37,2013-07-09 15:54:00,
2013-07-09 11:59:00,79.2,71.0,29.93,WSW,254,3.5,3.5,76,0.00,CLR,,0.01,962.0,WeatherDisplay:10.37,2013-07-09 15:59:00,
2013-07-09 12:04:00,79.3,70.7,29.93,WSW,239,6.9,6.9,75,0.00,CLR,,0.01,350.0,WeatherDisplay:10.37,2013-07-09 16:04:00,
2013-07-09 12:09:00,79.4,71.2,29.93,West,269,5.8,5.8,76,0.00,CLR,,0.01,923.0,WeatherDisplay:10.37,2013-07-09 16:09:00,
2013-07-09 12:14:00,79.8,70.8,29.93,South,184,5.8,5.8,74,0.00,CLR,,0.01,935.0,WeatherDisplay:10.37,2013-07-09 16:14:00,
2013-07-09 12:19:00,80.5,73.4,29.93,WSW,241,7.0,7.0,79,0.00,CLR,,0.01,882.0,WeatherDisplay:10.37,2013-07-09 16:19:00,
2013-07-09 12:24:00,81.2,72.5,29.93,WSW,248,5.8,5.8,75,0.00,CLR,,0.01,921.0,WeatherDisplay:10.37,2013-07-09 16:24:00,
2013-07-09 12:29:00,81.5,71.6,29.93,SSW,204,3.5,3.5,72,0.00,CLR,,0.01,1013.0,WeatherDisplay:10.37,2013-07-09 16:29:00,
2013-07-09 12:34:00,81.2,71.7,29.93,WSW,246,9.2,9.2,73,0.00,CLR,,0.01,218.0,WeatherDisplay:10.37,2013-07-09 16:34:00,
2013-07-09 12:39:00,80.9,70.6,29.93,WSW,250,5.8,5.8,71,0.00,CLR,,0.01,332.0,WeatherDisplay:10.37,2013-07-09 16:39:00,
2013-07-09 12:44:00,80.9,71.4,29.93,SSW,210,9.2,9.2,73,0.00,CLR,,0.01,1132.0,WeatherDisplay:10.37,2013-07-09 16:44:00,
2013-07-09 12:49:00,81.2,71.7,29.92,SW,228,6.9,6.9,73,0.00,CLR,,0.01,563.0,WeatherDisplay:10.37,2013-07-09 16:49:00,
2013-07-09 12:54:00,81.4,72.7,29.92,SW,216,9.2,9.2,75,0.00,CLR,,0.01,1111.0,WeatherDisplay:10.37,2013-07-09 16:54:00,
2013-07-09 12:59:00,81.4,71.5,29.93,WSW,240,4.6,4.6,72,0.00,CLR,,0.01,381.0,WeatherDisplay:10.37,2013-07-09 16:59:00,
2013-07-09 13:04:00,81.5,72.0,29.92,SW,232,3.5,3.5,73,0.00,CLR,,0.01,1118.0,WeatherDisplay:10.37,2013-07-09 17:04:00,
2013-07-09 13:09:00,81.6,71.7,29.92,SW,231,6.9,6.9,72,0.00,CLR,,0.01,942.0,WeatherDisplay:10.37,2013-07-09 17:09:00,
2013-07-09 13:14:00,81.9,71.6,29.92,West,277,7.0,7.0,71,0.00,CLR,,0.01,981.0,WeatherDisplay:10.37,2013-07-09 17:14:00,
2013-07-09 13:19:00,82.4,73.3,29.92,SSW,213,6.0,6.0,74,0.00,CLR,,0.01,979.0,WeatherDisplay:10.37,2013-07-09 17:19:00,
2013-07-09 13:24:00,82.9,72.1,29.92,WSW,255,8.1,8.1,70,0.00,CLR,,0.01,995.0,WeatherDisplay:10.37,2013-07-09 17:24:00,
2013-07-09 13:29:00,82.8,72.8,29.91,WSW,240,10.4,10.4,72,0.00,CLR,,0.01,1013.0,WeatherDisplay:10.37,2013-07-09 17:29:00,
2013-07-09 13:34:00,82.9,71.3,29.92,SW,235,5.8,5.8,68,0.00,CLR,,0.01,972.0,WeatherDisplay:10.37,2013-07-09 17:34:00,
2013-07-09 13:39:00,82.9,71.7,29.92,West,267,6.9,6.9,69,0.00,CLR,,0.01,970.0,WeatherDisplay:10.37,2013-07-09 17:39:00,
2013-07-09 13:44:00,82.9,72.1,29.91,South,173,4.6,4.6,70,0.00,CLR,,0.01,979.0,WeatherDisplay:10.37,2013-07-09 17:44:00,
2013-07-09 13:49:00,83.0,71.8,29.92,WSW,250,9.2,9.2,69,0.00,CLR,,0.01,970.0,WeatherDisplay:10.37,2013-07-09 17:49:00,
2013-07-09 13:54:00,83.1,71.4,29.91,West,273,6.9,6.9,68,0.00,CLR,,0.01,954.0,WeatherDisplay:10.37,2013-07-09 17:54:00,
2013-07-09 13:59:00,83.2,71.1,29.91,NW,316,4.6,4.6,67,0.00,CLR,,0.01,970.0,WeatherDisplay:10.37,2013-07-09 17:59:00,
2013-07-09 14:04:00,83.4,71.7,29.91,West,261,9.2,9.2,68,0.00,CLR,,0.01,963.0,WeatherDisplay:10.37,2013-07-09 18:04:00,
2013-07-09 14:09:00,83.6,71.5,29.91,West,271,6.0,6.0,67,0.00,CLR,,0.01,958.0,WeatherDisplay:10.37,2013-07-09 18:09:00,
2013-07-09 14:14:00,83.3,72.1,29.91,WNW,291,8.1,8.1,69,0.00,CLR,,0.01,986.0,WeatherDisplay:10.37,2013-07-09 18:14:00,
2013-07-09 14:19:00,83.2,72.0,29.91,WSW,242,5.0,5.0,69,0.00,FEW,,0.01,392.0,WeatherDisplay:10.37,2013-07-09 18:19:00,
2013-07-09 14:24:00,83.5,73.1,29.91,West,266,8.1,8.1,71,0.00,CLR,,0.01,902.0,WeatherDisplay:10.37,2013-07-09 18:24:00,
2013-07-09 14:29:00,83.9,72.6,29.91,WSW,242,5.8,5.8,69,0.00,CLR,,0.01,877.0,WeatherDisplay:10.37,2013-07-09 18:29:00,
2013-07-09 14:34:00,84.2,71.6,29.91,WSW,247,6.9,6.9,66,0.00,CLR,,0.01,993.0,WeatherDisplay:10.37,2013-07-09 18:34:00,
2013-07-09 14:39:00,84.3,71.7,29.90,West,277,10.4,10.4,66,0.00,CLR,,0.01,962.0,WeatherDisplay:10.37,2013-07-09 18:39:00,
2013-07-09 14:44:00,84.6,75.0,29.91,SW,230,6.9,6.9,73,0.00,CLR,,0.01,958.0,WeatherDisplay:10.37,2013-07-09 18:44:00,
2013-07-09 14:49:00,84.4,71.8,29.90,NW,309,5.8,5.8,66,0.00,BKN,,0.01,265.0,WeatherDisplay:10.37,2013-07-09 18:49:00,
2013-07-09 14:54:00,84.0,71.9,29.90,WNW,286,3.5,3.5,67,0.00,BKN,,0.01,309.0,WeatherDisplay:10.37,2013-07-09 18:54:00,
2013-07-09 14:59:00,84.0,72.3,29.90,West,271,2.3,2.3,68,0.00,CLR,,0.01,1018.0,WeatherDisplay:10.37,2013-07-09 18:59:00,
2013-07-09 15:04:00,84.5,73.6,29.90,West,273,3.5,3.5,70,0.00,CLR,,0.01,963.0,WeatherDisplay:10.37,2013-07-09 19:04:00,
2013-07-09 15:09:00,85.0,73.3,29.90,WNW,301,6.0,6.0,68,0.00,CLR,,0.01,981.0,WeatherDisplay:10.37,2013-07-09 19:09:00,
2013-07-09 15:14:00,85.1,72.0,29.90,WNW,288,3.5,3.5,65,0.00,CLR,,0.01,960.0,WeatherDisplay:10.37,2013-07-09 19:14:00,
2013-07-09 15:19:00,85.3,72.2,29.89,SW,226,3.5,3.5,65,0.00,BKN,,0.01,323.0,WeatherDisplay:10.37,2013-07-09 19:19:00,
2013-07-09 15:24:00,85.5,72.4,29.89,WSW,239,5.0,5.0,65,0.00,CLR,,0.01,909.0,WeatherDisplay:10.37,2013-07-09 19:24:00,
2013-07-09 15:29:00,85.4,71.8,29.89,NW,318,6.9,6.9,64,0.00,CLR,,0.01,860.0,WeatherDisplay:10.37,2013-07-09 19:29:00,
2013-07-09 15:34:00,85.4,71.8,29.89,WNW,298,5.8,5.8,64,0.00,CLR,,0.01,912.0,WeatherDisplay:10.37,2013-07-09 19:34:00,
2013-07-09 15:39:00,85.3,71.7,29.89,West,273,3.5,3.5,64,0.00,SCT,,0.01,422.0,WeatherDisplay:10.37,2013-07-09 19:39:00,
2013-07-09 15:44:00,85.7,72.6,29.88,SSW,197,8.1,8.1,65,0.00,CLR,,0.01,918.0,WeatherDisplay:10.37,2013-07-09 19:44:00,
2013-07-09 15:49:00,85.8,72.2,29.88,SSW,208,2.3,2.3,64,0.00,CLR,,0.01,754.0,WeatherDisplay:10.37,2013-07-09 19:49:00,
2013-07-09 15:54:00,85.7,73.0,29.87,SW,218,10.4,10.4,66,0.00,CLR,,0.01,782.0,WeatherDisplay:10.37,2013-07-09 19:54:00,
2013-07-09 15:59:00,85.8,72.7,29.87,SW,222,4.0,4.0,65,0.00,CLR,,0.01,905.0,WeatherDisplay:10.37,2013-07-09 19:59:00,
2013-07-09 16:04:00,85.9,72.3,29.87,West,261,3.0,3.0,64,0.00,BKN,,0.01,308.0,WeatherDisplay:10.37,2013-07-09 20:04:00,
2013-07-09 16:09:00,86.0,72.4,29.87,SW,229,5.8,5.8,64,0.00,CLR,,0.01,896.0,WeatherDisplay:10.37,2013-07-09 20:09:00,
2013-07-09 16:14:00,86.7,73.1,29.87,West,273,6.9,6.9,64,0.00,CLR,,0.01,828.0,WeatherDisplay:10.37,2013-07-09 20:14:00,
2013-07-09 16:19:00,87.1,73.4,29.87,SW,221,3.5,3.5,64,0.00,FEW,,0.01,740.0,WeatherDisplay:10.37,2013-07-09 20:19:00,
2013-07-09 16:24:00,87.1,73.0,29.86,West,273,8.1,8.1,63,0.00,FEW,,0.01,666.0,WeatherDisplay:10.37,2013-07-09 20:24:00,
2013-07-09 16:29:00,87.1,73.4,29.86,SW,222,4.0,4.0,64,0.00,CLR,,0.01,824.0,WeatherDisplay:10.37,2013-07-09 20:29:00,
2013-07-09 16:34:00,87.2,74.5,29.86,West,277,4.0,4.0,66,0.00,FEW,,0.01,721.0,WeatherDisplay:10.37,2013-07-09 20:34:00,
2013-07-09 16:39:00,87.3,72.7,29.85,SW,217,6.0,6.0,62,0.00,FEW,,0.01,780.0,WeatherDisplay:10.37,2013-07-09 20:39:00,
2013-07-09 16:44:00,87.5,72.4,29.85,South,179,8.1,8.1,61,0.00,FEW,,0.01,756.0,WeatherDisplay:10.37,2013-07-09 20:44:00,
2013-07-09 16:49:00,87.6,73.0,29.85,West,271,4.6,4.6,62,0.00,SCT,,0.01,691.0,WeatherDisplay:10.37,2013-07-09 20:49:00,
2013-07-09 16:54:00,87.3,71.7,29.85,SW,236,8.1,8.1,60,0.00,BKN,,0.01,410.0,WeatherDisplay:10.37,2013-07-09 20:54:00,
2013-07-09 16:59:00,86.9,71.8,29.85,WSW,246,8.0,8.0,61,0.00,SCT,,0.01,694.0,WeatherDisplay:10.37,2013-07-09 20:59:00,
2013-07-09 17:05:00,87.0,71.4,29.86,SW,225,5.8,5.8,60,0.00,BKN,,0.01,559.0,WeatherDisplay:10.37,2013-07-09 21:05:00,
2013-07-09 17:10:00,87.0,71.9,29.85,SW,219,7.0,7.0,61,0.00,SCT,,0.01,622.0,WeatherDisplay:10.37,2013-07-09 21:10:00,
2013-07-09 17:15:00,87.1,72.5,29.86,WSW,242,5.8,5.8,62,0.00,SCT,,0.01,536.0,WeatherDisplay:10.37,2013-07-09 21:15:00,
2013-07-09 17:20:00,86.9,72.3,29.86,WSW,238,3.5,3.5,62,0.00,BKN,,0.01,195.0,WeatherDisplay:10.37,2013-07-09 21:20:00,
2013-07-09 17:25:00,86.3,71.7,29.85,SW,236,7.0,7.0,62,0.00,BKN,,0.01,199.0,WeatherDisplay:10.37,2013-07-09 21:25:00,
2013-07-09 17:30:00,85.8,71.7,29.85,West,280,3.5,3.5,63,0.00,BKN,,0.01,227.0,WeatherDisplay:10.37,2013-07-09 21:30:00,
2013-07-09 17:35:00,85.6,72.5,29.85,SW,219,3.5,3.5,65,0.00,BKN,,0.01,251.0,WeatherDisplay:10.37,2013-07-09 21:35:00,
2013-07-09 17:40:00,85.4,72.3,29.84,WSW,239,4.0,4.0,65,0.00,BKN,,0.01,251.0,WeatherDisplay:10.37,2013-07-09 21:40:00,
2013-07-09 17:45:00,85.3,72.2,29.84,SW,220,3.5,3.5,65,0.00,BKN,,0.01,248.0,WeatherDisplay:10.37,2013-07-09 21:45:00,
2013-07-09 17:50:00,85.3,72.2,29.84,WSW,242,3.5,3.5,65,0.00,BKN,,0.01,239.0,WeatherDisplay:10.37,2013-07-09 21:50:00,
2013-07-09 17:55:00,85.3,72.2,29.84,WSW,256,4.6,4.6,65,0.00,BKN,,0.01,288.0,WeatherDisplay:10.37,2013-07-09 21:55:00,
2013-07-09 18:00:00,85.5,73.7,29.84,SSW,210,3.5,3.5,68,0.00,BKN,,0.01,332.0,WeatherDisplay:10.37,2013-07-09 22:00:00,
2013-07-09 18:05:00,85.7,72.6,29.84,South,181,3.0,3.0,65,0.00,BKN,,0.01,496.0,WeatherDisplay:10.37,2013-07-09 22:05:00,
2013-07-09 18:10:00,86.3,73.6,29.84,SW,236,5.8,5.8,66,0.00,BKN,,0.01,454.0,WeatherDisplay:10.37,2013-07-09 22:10:00,
2013-07-09 18:15:00,86.4,73.2,29.85,WSW,243,10.4,10.4,65,0.00,BKN,,0.01,218.0,WeatherDisplay:10.37,2013-07-09 22:15:00,
2013-07-09 18:20:00,86.0,73.3,29.85,SSW,197,4.0,4.0,66,0.00,BKN,,0.01,142.0,WeatherDisplay:10.37,2013-07-09 22:20:00,
2013-07-09 18:25:00,85.7,73.5,29.85,South,178,6.9,6.9,67,0.00,BKN,,0.01,132.0,WeatherDisplay:10.37,2013-07-09 22:25:00,
2013-07-09 18:39:00,81.0,71.1,29.87,SW,219,7.0,0.0,72,0.00,CLR,,0.02,12.0,WeatherDisplay:10.37,2013-07-09 22:39:00,
2013-07-09 18:44:00,76.9,70.6,29.87,SSW,207,17.3,17.3,81,0.17,RA,,0.22,18.0,WeatherDisplay:10.37,2013-07-09 22:44:00,
2013-07-09 18:49:00,74.8,70.3,29.87,SSW,192,11.5,11.5,86,0.24,RA,,0.25,21.0,WeatherDisplay:10.37,2013-07-09 22:49:00,
2013-07-09 18:54:00,73.8,70.0,29.86,SSW,192,8.1,8.4,88,0.24,RA,,0.25,12.0,WeatherDisplay:10.37,2013-07-09 22:54:00,
2013-07-09 18:59:00,73.2,70.1,29.86,SSW,205,9.2,9.2,90,0.24,OVC,,0.25,7.0,WeatherDisplay:10.37,2013-07-09 22:59:00,
2013-07-09 19:04:00,72.9,70.1,29.86,SSW,199,5.8,5.8,91,0.24,OVC,,0.25,5.0,WeatherDisplay:10.37,2013-07-09 23:04:00,
2013-07-09 19:09:00,72.7,70.2,29.86,SW,226,6.9,6.9,92,0.24,OVC,,0.25,0.0,WeatherDisplay:10.37,2013-07-09 23:09:00,
2013-07-09 19:14:00,72.6,70.1,29.86,SW,223,5.8,5.8,92,0.25,RA,,0.26,5.0,WeatherDisplay:10.37,2013-07-09 23:14:00,
2013-07-09 19:19:00,72.4,70.3,29.86,WSW,254,5.8,5.8,93,0.25,RA,,0.26,5.0,WeatherDisplay:10.37,2013-07-09 23:19:00,
2013-07-09 19:24:00,72.3,70.2,29.85,SW,230,4.6,4.6,93,0.26,RA,,0.27,7.0,WeatherDisplay:10.37,2013-07-09 23:24:00,
2013-07-09 19:29:00,72.2,70.1,29.85,WSW,249,5.8,5.8,93,0.27,RA,,0.28,11.0,WeatherDisplay:10.37,2013-07-09 23:29:00,
2013-07-09 19:34:00,72.1,70.0,29.85,WSW,242,6.0,6.0,93,0.27,RA,,0.28,11.0,WeatherDisplay:10.37,2013-07-09 23:34:00,
2013-07-09 19:39:00,72.1,70.3,29.85,WSW,240,8.1,8.1,94,0.27,OVC,,0.28,12.0,WeatherDisplay:10.37,2013-07-09 23:39:00,
2013-07-09 19:44:00,72.0,70.2,29.84,SW,224,4.6,4.6,94,0.11,RA,,0.29,14.0,WeatherDisplay:10.37,2013-07-09 23:44:00,
2013-07-09 19:49:00,72.0,70.2,29.84,WSW,240,3.5,3.5,94,0.04,RA,,0.30,18.0,WeatherDisplay:10.37,2013-07-09 23:49:00,
2013-07-09 19:54:00,72.0,70.2,29.84,WSW,257,2.3,2.3,94,0.05,RA,,0.30,26.0,WeatherDisplay:10.37,2013-07-09 23:54:00,
2013-07-09 19:59:00,72.1,70.6,29.83,SW,215,3.5,3.5,95,0.05,RA,,0.30,42.0,WeatherDisplay:10.37,2013-07-09 23:59:00,
2013-07-09 20:04:00,72.1,70.6,29.83,SW,215,2.3,2.3,95,0.05,CLR,,0.30,65.0,WeatherDisplay:10.37,2013-07-10 00:04:00,
2013-07-09 20:09:00,72.2,70.7,29.82,SW,236,3.5,3.5,95,0.05,BKN,,0.30,84.0,WeatherDisplay:10.37,2013-07-10 00:09:00,
2013-07-09 20:14:00,72.2,70.7,29.82,SW,223,5.8,5.8,95,0.04,BKN,,0.30,83.0,WeatherDisplay:10.37,2013-07-10 00:14:00,
2013-07-09 20:19:00,72.3,70.8,29.82,SW,232,3.5,3.5,95,0.04,BKN,,0.30,67.0,WeatherDisplay:10.37,2013-07-10 00:19:00,
2013-07-09 20:24:00,72.4,70.9,29.82,SW,236,2.3,2.3,95,0.03,CLR,,0.30,47.0,WeatherDisplay:10.37,2013-07-10 00:24:00,
2013-07-09 20:29:00,72.4,70.9,29.83,WSW,242,2.3,2.3,95,0.02,CLR,,0.30,28.0,WeatherDisplay:10.37,2013-07-10 00:29:00,
2013-07-09 20:34:00,72.5,71.0,29.83,SW,215,4.6,4.6,95,0.02,CLR,,0.30,19.0,WeatherDisplay:10.37,2013-07-10 00:34:00,
2013-07-09 20:39:00,72.5,71.0,29.82,SSW,198,3.0,3.0,95,0.02,CLR,,0.30,26.0,WeatherDisplay:10.37,2013-07-10 00:39:00,
2013-07-09 20:44:00,72.5,71.0,29.82,WSW,240,6.9,6.9,95,0.01,CLR,,0.30,19.0,WeatherDisplay:10.37,2013-07-10 00:44:00,
2013-07-09 20:49:00,72.4,70.9,29.82,SW,219,7.0,7.0,95,0.01,CLR,,0.30,18.0,WeatherDisplay:10.37,2013-07-10 00:49:00,
2013-07-09 20:54:00,72.3,70.8,29.83,SSW,213,5.8,5.8,95,0.00,CLR,,0.30,16.0,WeatherDisplay:10.37,2013-07-10 00:54:00,
2013-07-09 20:59:00,72.3,70.8,29.83,WSW,240,3.5,3.5,95,0.00,CLR,,0.30,16.0,WeatherDisplay:10.37,2013-07-10 00:59:00,
2013-07-09 21:04:00,72.2,70.7,29.83,SW,229,3.5,3.5,95,0.00,CLR,,0.30,11.0,WeatherDisplay:10.37,2013-07-10 01:04:00,
2013-07-09 21:09:00,72.2,70.7,29.83,SW,230,5.8,5.8,95,0.00,CLR,,0.30,7.0,WeatherDisplay:10.37,2013-07-10 01:09:00,
2013-07-09 21:14:00,72.1,70.6,29.83,SW,222,6.9,6.9,95,0.00,CLR,,0.30,5.0,WeatherDisplay:10.37,2013-07-10 01:14:00,
2013-07-09 21:19:00,72.1,70.6,29.82,SSW,200,7.0,7.0,95,0.00,CLR,,0.30,0.0,WeatherDisplay:10.37,2013-07-10 01:19:00,
2013-07-09 21:24:00,72.1,70.6,29.82,SW,225,5.8,5.8,95,0.00,CLR,,0.30,0.0,WeatherDisplay:10.37,2013-07-10 01:24:00,
2013-07-09 21:29:00,72.1,70.6,29.83,WSW,243,6.0,6.0,95,0.00,CLR,,0.30,0.0,WeatherDisplay:10.37,2013-07-10 01:29:00,
2013-07-09 21:34:00,72.1,70.6,29.83,SSW,209,8.1,8.1,95,0.00,CLR,,0.30,0.0,WeatherDisplay:10.37,2013-07-10 01:34:00,
2013-07-09 21:39:00,72.1,70.6,29.83,SW,235,6.9,6.9,95,0.00,CLR,,0.30,0.0,WeatherDisplay:10.37,2013-07-10 01:39:00,
2013-07-09 21:44:00,72.1,70.6,29.83,SSW,205,5.8,5.8,95,0.00,CLR,,0.30,0.0,WeatherDisplay:10.37,2013-07-10 01:44:00,
2013-07-09 21:49:00,72.1,70.6,29.83,SW,217,3.5,3.5,95,0.00,CLR,,0.30,0.0,WeatherDisplay:10.37,2013-07-10 01:49:00,
2013-07-09 21:54:00,72.2,70.7,29.83,WSW,245,6.9,6.9,95,0.00,CLR,,0.30,0.0,WeatherDisplay:10.37,2013-07-10 01:54:00,
2013-07-09 21:59:00,72.2,70.7,29.83,SSW,208,4.6,4.6,95,0.00,CLR,,0.30,0.0,WeatherDisplay:10.37,2013-07-10 01:59:00,
2013-07-09 22:04:00,72.2,70.7,29.83,SW,214,4.6,4.6,95,0.00,CLR,,0.30,0.0,WeatherDisplay:10.37,2013-07-10 02:04:00,
2013-07-09 22:09:00,72.2,70.7,29.83,SW,214,5.0,5.0,95,0.00,CLR,,0.30,0.0,WeatherDisplay:10.37,2013-07-10 02:09:00,
2013-07-09 22:14:00,72.2,70.7,29.84,SSW,202,3.5,3.5,95,0.00,CLR,,0.30,0.0,WeatherDisplay:10.37,2013-07-10 02:14:00,
2013-07-09 22:19:00,72.3,70.8,29.84,SSW,213,3.5,3.5,95,0.00,CLR,,0.30,0.0,WeatherDisplay:10.37,2013-07-10 02:19:00,
2013-07-09 22:24:00,72.3,70.8,29.84,SSW,197,6.9,6.9,95,0.00,CLR,,0.30,0.0,WeatherDisplay:10.37,2013-07-10 02:24:00,
2013-07-09 22:29:00,72.3,70.8,29.84,SW,219,5.8,5.8,95,0.00,CLR,,0.30,0.0,WeatherDisplay:10.37,2013-07-10 02:29:00,
2013-07-09 22:34:00,72.3,70.8,29.84,South,188,8.1,8.1,95,0.00,CLR,,0.30,0.0,WeatherDisplay:10.37,2013-07-10 02:34:00,
2013-07-09 22:39:00,72.4,70.9,29.84,SSW,199,5.8,5.8,95,0.00,CLR,,0.30,0.0,WeatherDisplay:10.37,2013-07-10 02:39:00,
2013-07-09 22:44:00,72.4,70.9,29.84,SSW,199,5.8,5.8,95,0.00,CLR,,0.30,0.0,WeatherDisplay:10.37,2013-07-10 02:44:00,
2013-07-09 22:49:00,72.5,71.0,29.84,SSW,209,8.1,8.1,95,0.00,CLR,,0.30,0.0,WeatherDisplay:10.37,2013-07-10 02:49:00,
2013-07-09 22:54:00,72.6,71.1,29.84,SW,221,11.5,11.5,95,0.00,CLR,,0.30,0.0,WeatherDisplay:10.37,2013-07-10 02:54:00,
2013-07-09 22:59:00,72.7,71.2,29.84,SW,236,6.9,6.9,95,0.00,CLR,,0.30,0.0,WeatherDisplay:10.37,2013-07-10 02:59:00,
2013-07-09 23:04:00,72.8,71.3,29.84,WSW,251,9.2,9.2,95,0.00,CLR,,0.30,0.0,WeatherDisplay:10.37,2013-07-10 03:04:00,
2013-07-09 23:09:00,72.9,71.4,29.84,WSW,241,8.0,8.0,95,0.00,CLR,,0.30,0.0,WeatherDisplay:10.37,2013-07-10 03:09:00,
2013-07-09 23:14:00,73.0,71.8,29.84,WSW,242,9.2,9.2,96,0.00,CLR,,0.30,0.0,WeatherDisplay:10.37,2013-07-10 03:14:00,
2013-07-09 23:19:00,73.1,71.9,29.84,SSW,211,6.9,6.9,96,0.00,CLR,,0.30,0.0,WeatherDisplay:10.37,2013-07-10 03:19:00,
2013-07-09 23:24:00,73.1,71.9,29.84,South,179,6.9,6.9,96,0.00,CLR,,0.30,0.0,WeatherDisplay:10.37,2013-07-10 03:24:00,
2013-07-09 23:29:00,73.1,71.9,29.83,WSW,238,8.1,8.1,96,0.00,CLR,,0.30,0.0,WeatherDisplay:10.37,2013-07-10 03:29:00,
2013-07-09 23:34:00,73.2,72.0,29.83,SW,236,7.0,7.0,96,0.00,CLR,,0.30,0.0,WeatherDisplay:10.37,2013-07-10 03:34:00,
2013-07-09 23:39:00,73.2,71.7,29.83,SSW,198,8.1,8.1,95,0.00,CLR,,0.30,0.0,WeatherDisplay:10.37,2013-07-10 03:39:00,
2013-07-09 23:44:00,73.3,71.8,29.83,South,178,6.9,6.9,95,0.00,CLR,,0.30,0.0,WeatherDisplay:10.37,2013-07-10 03:44:00,
2013-07-09 23:49:00,73.3,71.8,29.83,SSW,198,5.8,5.8,95,0.00,CLR,,0.30,0.0,WeatherDisplay:10.37,2013-07-10 03:49:00,
2013-07-09 23:54:00,73.3,71.8,29.83,SSW,202,4.6,4.6,95,0.00,CLR,,0.30,0.0,WeatherDisplay:10.37,2013-07-10 03:54:00,